カタログに戻る

DMSP 5D-2 F14 DEB

運用中SSO
NORAD 62944·DEBRIS·🇺🇸 United States

打ち上げ Apr 4, 1997 から Vandenberg Space Force Base

Loading…

次のパス (今後24時間)

TLE

最新Source: Space-Track

元期: Sep 14, 2026, 07:14 UTC

1 62944U 97012Q   26257.30151702  .00007642  00000-0  17408-2 0  9996
2 62944  98.0712 283.9950 0091583   6.8564 353.3862 14.53551644522800

AllMySatでDMSP 5D-2 F14 DEBをリアルタイム追跡

Download on the App Store